| time (UTC) | temp F | wind direction | speed knots | gust knots | rain 1hr in | rain 24hr in | rain mn in | humidity % | barometer mb |
| 20260507090033 | 58 | 69 | 0.0 | 0.9 | 0.00 | 0.00 | 0.00 | 83 | 1023.9 |
| 20260507084533 | 58 | 69 | 0.0 | 2.6 | 0.00 | 0.00 | 0.00 | 83 | 1023.9 |
| 20260507083031 | 58 | 69 | 0.9 | 2.6 | 0.00 | 0.00 | 0.00 | 83 | 1023.9 |
| 20260507081536 | 58 | 69 | 0.0 | 3.5 | 0.00 | 0.00 | 0.00 | 82 | 1023.9 |
| 20260507080031 | 58 | 69 | 0.0 | 0.0 | 0.00 | 0.00 | 0.00 | 82 | 1023.8 |
| 20260507074532 | 59 | 69 | 0.0 | 0.0 | 0.00 | 0.00 | 0.00 | 81 | 1023.8 |
| 20260507073026 | 59 | 69 | 0.0 | 0.0 | 0.00 | 0.00 | 0.00 | 81 | 1023.8 |
| 20260507071531 | 59 | 69 | 0.0 | 1.7 | 0.00 | 0.00 | 0.00 | 80 | 1023.8 |
| 20260507070022 | 60 | 69 | 0.0 | 0.9 | 0.00 | 0.00 | 0.00 | 79 | 1023.8 |
| 20260507064523 | 60 | 69 | 0.0 | 0.9 | 0.00 | 0.00 | 0.00 | 79 | 1023.8 |
| 20260507063020 | 61 | 69 | 0.0 | 2.6 | 0.00 | 0.00 | 0.00 | 77 | 1023.6 |
| 20260507061529 | 62 | 69 | 0.0 | 1.7 | 0.00 | 0.00 | 0.00 | 76 | 1023.6 |
| 20260507060019 | 62 | 69 | 0.0 | 0.9 | 0.00 | 0.00 | 0.00 | 75 | 1023.6 |
| 20260507054521 | 63 | 69 | 0.0 | 2.6 | 0.00 | 0.00 | 0.00 | 75 | 1023.5 |
| 20260507053022 | 63 | 69 | 0.0 | 0.0 | 0.00 | 0.00 | 0.00 | 73 | 1023.6 |
| 20260507051518 | 64 | 69 | 0.0 | 0.0 | 0.00 | 0.00 | 0.00 | 72 | 1023.5 |
| 20260507050021 | 65 | 69 | 0.0 | 4.3 | 0.00 | 0.00 | 0.00 | 72 | 1023.4 |
| 20260507044518 | 65 | 69 | 0.0 | 4.3 | 0.00 | 0.00 | 0.00 | 71 | 1023.3 |
| 20260507043017 | 66 | 69 | 0.0 | 3.5 | 0.00 | 0.00 | 0.00 | 71 | 1023.3 |
| 20260507041516 | 67 | 69 | 0.0 | 2.6 | 0.00 | 0.00 | 0.00 | 71 | 1023.2 |
| 20260507040017 | 68 | 69 | 0.0 | 4.3 | 0.00 | 0.00 | 0.00 | 70 | 1023.0 |
| 20260507034515 | 68 | 68 | 0.0 | 3.5 | 0.00 | 0.00 | 0.00 | 69 | 1023.0 |
| 20260507033015 | 70 | 68 | 0.0 | 7.0 | 0.00 | 0.00 | 0.00 | 68 | 1022.9 |
| 20260507031514 | 71 | 66 | 0.9 | 3.5 | 0.00 | 0.00 | 0.00 | 66 | 1022.7 |
| 20260507030014 | 73 | 65 | 1.7 | 9.6 | 0.00 | 0.00 | 0.00 | 63 | 1022.6 |
| 20260507024516 | 73 | 51 | 0.0 | 0.0 | 0.00 | 0.00 | 0.00 | 59 | 1022.5 |
| 20260507023012 | 73 | 51 | 0.0 | 0.0 | 0.00 | 0.00 | 0.00 | 57 | 1022.5 |
| 20260507021512 | 74 | 51 | 0.0 | 3.5 | 0.00 | 0.00 | 0.00 | 57 | 1022.4 |
| 20260507020012 | 74 | 51 | 0.0 | 1.7 | 0.00 | 0.00 | 0.00 | 57 | 1022.4 |
| 20260507014510 | 74 | 51 | 0.0 | 1.7 | 0.00 | 0.00 | 0.00 | 56 | 1022.5 |
| 20260507013012 | 74 | 51 | 0.9 | 2.6 | 0.00 | 0.00 | 0.00 | 56 | 1022.4 |
| 20260507011508 | 74 | 51 | 0.9 | 4.3 | 0.00 | 0.00 | 0.00 | 56 | 1022.5 |
| 20260507010025 | 74 | 51 | 1.7 | 3.5 | 0.00 | 0.00 | 0.00 | 56 | 1022.5 |
| 20260507004507 | 74 | 51 | 0.9 | 4.3 | 0.00 | 0.00 | 0.00 | 56 | 1022.6 |
| 20260507003006 | 75 | 51 | 0.9 | 3.5 | 0.00 | 0.00 | 0.00 | 54 | 1022.7 |
| 20260507001505 | 76 | 51 | 1.7 | 3.5 | 0.00 | 0.00 | 0.00 | 53 | 1022.7 |
| 20260507000004 | 75 | 51 | 0.9 | 5.2 | 0.00 | 0.00 | 0.00 | 54 | 1022.7 |
| 20260506234503 | 75 | 51 | 0.0 | 5.2 | 0.00 | 0.00 | 0.00 | 56 | 1022.8 |
| 20260506233002 | 75 | 56 | 2.6 | 6.1 | 0.00 | 0.00 | 0.00 | 55 | 1023.0 |
| 20260506231559 | 75 | 57 | 1.7 | 6.1 | 0.00 | 0.00 | 0.00 | 54 | 1023.1 |
| 20260506230058 | 75 | 57 | 3.5 | 7.8 | 0.00 | 0.00 | 0.00 | 54 | 1023.3 |
| 20260506224611 | 74 | 71 | 1.7 | 5.2 | 0.00 | 0.00 | 0.00 | 57 | 1023.6 |
| 20260506223058 | 73 | 74 | 0.9 | 4.3 | 0.00 | 0.00 | 0.00 | 56 | 1023.8 |
| 20260506221551 | 73 | 80 | 1.7 | 7.8 | 0.00 | 0.00 | 0.00 | 56 | 1024.0 |
| 20260506220104 | 74 | 80 | 0.9 | 5.2 | 0.00 | 0.00 | 0.00 | 56 | 1024.2 |
| 20260506214550 | 73 | 81 | 0.9 | 5.2 | 0.00 | 0.00 | 0.00 | 55 | 1024.4 |
| 20260506213049 | 74 | 85 | 1.7 | 5.2 | 0.00 | 0.00 | 0.00 | 54 | 1024.6 |
| 20260506211553 | 74 | 86 | 0.9 | 5.2 | 0.00 | 0.00 | 0.00 | 54 | 1024.7 |
| 20260506210043 | 72 | 86 | 0.9 | 7.8 | 0.00 | 0.00 | 0.00 | 56 | 1025.0 |
| 20260506204543 | 72 | 88 | 0.9 | 6.1 | 0.00 | 0.00 | 0.00 | 56 | 1025.1 |
| 20260506203041 | 72 | 88 | 0.0 | 7.0 | 0.00 | 0.00 | 0.00 | 55 | 1025.4 |
| 20260506201540 | 71 | 94 | 1.7 | 6.1 | 0.00 | 0.00 | 0.00 | 55 | 1025.5 |
| 20260506200037 | 71 | 94 | 1.7 | 6.1 | 0.00 | 0.00 | 0.00 | 56 | 1025.6 |
| 20260506194538 | 71 | 104 | 1.7 | 7.0 | 0.00 | 0.00 | 0.00 | 57 | 1025.7 |
| 20260506193034 | 71 | 123 | 1.7 | 5.2 | 0.00 | 0.00 | 0.00 | 56 | 1025.8 |
| 20260506191532 | 70 | 123 | 1.7 | 5.2 | 0.00 | 0.00 | 0.00 | 59 | 1026.3 |
| 20260506190030 | 70 | 123 | 0.0 | 3.5 | 0.00 | 0.00 | 0.00 | 59 | 1026.3 |
| 20260506184530 | 70 | 123 | 0.9 | 3.5 | 0.00 | 0.00 | 0.00 | 61 | 1026.3 |
| 20260506183026 | 69 | 123 | 0.0 | 3.5 | 0.00 | 0.00 | 0.00 | 63 | 1026.5 |
| 20260506181521 | 68 | 123 | 0.0 | 2.6 | 0.00 | 0.00 | 0.00 | 65 | 1026.4 |
| 20260506180018 | 66 | 123 | 0.0 | 1.7 | 0.00 | 0.00 | 0.00 | 67 | 1026.6 |
| 20260506174514 | 65 | 123 | 0.0 | 2.6 | 0.00 | 0.00 | 0.00 | 68 | 1026.6 |
| 20260506173012 | 65 | 123 | 0.0 | 0.0 | 0.00 | 0.00 | 0.00 | 70 | 1026.6 |
| 20260506171507 | 64 | 123 | 0.0 | 0.0 | 0.00 | 0.00 | 0.00 | 72 | 1026.6 |
| 20260506170004 | 63 | 123 | 0.0 | 0.0 | 0.00 | 0.00 | 0.00 | 74 | 1026.6 |
| 20260506164501 | 62 | 123 | 0.0 | 0.0 | 0.00 | 0.00 | 0.00 | 75 | 1026.7 |
| 20260506163056 | 61 | 123 | 0.0 | 0.0 | 0.00 | 0.00 | 0.00 | 76 | 1026.6 |
| 20260506161553 | 61 | 123 | 0.0 | 0.0 | 0.00 | 0.00 | 0.00 | 77 | 1026.5 |
| 20260506160059 | 60 | 123 | 0.0 | 0.0 | 0.00 | 0.00 | 0.00 | 78 | 1026.6 |
| 20260506154547 | 59 | 123 | 0.0 | 1.7 | 0.00 | 0.00 | 0.00 | 78 | 1026.6 |
| 20260506153040 | 59 | 123 | 0.0 | 3.5 | 0.00 | 0.00 | 0.00 | 79 | 1026.5 |
| 20260506151543 | 58 | 123 | 0.0 | 1.7 | 0.00 | 0.00 | 0.00 | 80 | 1026.5 |
| 20260506150036 | 58 | 123 | 0.0 | 0.0 | 0.00 | 0.00 | 0.00 | 81 | 1026.4 |
| 20260506144532 | 58 | 123 | 0.0 | 1.7 | 0.00 | 0.00 | 0.00 | 81 | 1026.4 |
| 20260506143034 | 57 | 123 | 0.0 | 0.0 | 0.00 | 0.00 | 0.00 | 82 | 1026.3 |
| 20260506141527 | 57 | 123 | 0.0 | 0.0 | 0.00 | 0.00 | 0.00 | 82 | 1026.2 |
| 20260506140024 | 57 | 123 | 0.0 | 1.7 | 0.00 | 0.00 | 0.00 | 82 | 1026.0 |
| 20260506134524 | 57 | 123 | 0.0 | 1.7 | 0.00 | 0.00 | 0.00 | 82 | 1025.9 |
| 20260506133020 | 57 | 123 | 0.0 | 3.5 | 0.00 | 0.00 | 0.00 | 82 | 1025.8 |
| 20260506131536 | 57 | 123 | 0.0 | 0.9 | 0.00 | 0.00 | 0.00 | 82 | 1025.7 |
| 20260506130032 | 57 | 123 | 0.0 | 2.6 | 0.00 | 0.00 | 0.00 | 82 | 1025.7 |
| 20260506124515 | 57 | 123 | 0.0 | 1.7 | 0.00 | 0.00 | 0.00 | 82 | 1025.6 |
| 20260506123014 | 57 | 123 | 0.0 | 0.0 | 0.00 | 0.00 | 0.00 | 82 | 1025.5 |
| 20260506121513 | 57 | 123 | 0.0 | 1.7 | 0.00 | 0.00 | 0.00 | 82 | 1025.4 |
| 20260506120017 | 57 | 123 | 0.0 | 0.0 | 0.00 | 0.00 | 0.00 | 83 | 1025.3 |
| 20260506114511 | 57 | 123 | 0.0 | 0.0 | 0.00 | 0.00 | 0.00 | 83 | 1025.3 |
| 20260506113009 | 57 | 123 | 0.0 | 0.0 | 0.00 | 0.00 | 0.00 | 82 | 1025.2 |
| 20260506111507 | 57 | 123 | 0.0 | 2.6 | 0.00 | 0.00 | 0.00 | 82 | 1025.0 |
| 20260506110006 | 57 | 123 | 0.0 | 0.0 | 0.00 | 0.00 | 0.00 | 82 | 1024.9 |
| 20260506104504 | 57 | 123 | 0.0 | 0.9 | 0.00 | 0.00 | 0.00 | 81 | 1024.8 |
| 20260506103002 | 57 | 123 | 0.0 | 3.5 | 0.00 | 0.00 | 0.00 | 81 | 1024.6 |
| 20260506101504 | 58 | 123 | 0.0 | 0.0 | 0.00 | 0.00 | 0.00 | 81 | 1024.5 |
| 20260506100001 | 58 | 123 | 0.0 | 0.0 | 0.00 | 0.00 | 0.00 | 80 | 1024.5 |
| 20260506094623 | 58 | 123 | 0.0 | 0.0 | 0.00 | 0.00 | 0.00 | 80 | 1024.5 |
| 20260506093059 | 58 | 123 | 0.0 | 0.0 | 0.00 | 0.00 | 0.00 | 80 | 1024.5 |
| 20260506091558 | 58 | 123 | 0.0 | 0.9 | 0.00 | 0.00 | 0.00 | 80 | 1024.5 |